WetterOnline ( https://www.wetteronline.de )

Wetter aktuell Freiburg im Breisgau

Aktuelles Wetter: Freiburg/Flugplatz (236m)

6-stündlich | Neueste Meldungen
Ortszeit Temperatur Wetter
Do, 29.09. 2:00 9.8° C Sprühregen
Mi, 28.09. 20:00 9.8° C bewölkt
Mi, 28.09. 14:00 11.3° C bedeckt
Mi, 28.09. 8:00 11.8° C leichter Regen
Mi, 28.09. 2:00 12.0° C bedeckt
Di, 27.09. 20:00 11.1° C bedeckt
Di, 27.09. 14:00 11.6° C leichter Regen
Di, 27.09. 8:00 10.2° C leichter Regen
Ortszeit Temperatur Wetter
Do, 29.09. 7:00 8.5° C bedeckt
Do, 29.09. 6:50 8.5° C bedeckt
Do, 29.09. 6:40 8.6° C Dunst
Do, 29.09. 6:30 8.7° C bewölkt
Do, 29.09. 6:20 8.7° C bewölkt
Do, 29.09. 6:10 8.6° C bedeckt
Do, 29.09. 6:00 8.4° C bedeckt
Do, 29.09. 5:30 8.0° C bewölkt
Do, 29.09. 5:00 8.3° C wolkig
Do, 29.09. 4:30 9.1° C bewölkt
Do, 29.09. 4:00 9.3° C bedeckt
Ortszeit Relative Feuchte Sichtweite
Do, 29.09. 2:00 85% 40 km
Mi, 28.09. 20:00 86% 65 km
Mi, 28.09. 14:00 86% 60 km
Mi, 28.09. 8:00 85% 65 km
Mi, 28.09. 2:00 75% 45 km
Di, 27.09. 20:00 78% 65 km
Di, 27.09. 14:00 77% 11 km
Di, 27.09. 8:00 86% 19 km
Ortszeit Relative Feuchte Sichtweite
Do, 29.09. 7:00 96% 20 km
Do, 29.09. 6:50 96% -
Do, 29.09. 6:40 96% -
Do, 29.09. 6:30 95% 19 km
Do, 29.09. 6:20 95% -
Do, 29.09. 6:10 96% -
Do, 29.09. 6:00 97% 35 km
Do, 29.09. 5:30 97% 22 km
Do, 29.09. 5:00 97% 25 km
Do, 29.09. 4:30 95% 35 km
Do, 29.09. 4:00 92% 35 km
Ortszeit Niederschlagsmenge Niederschlagsart
Do, 29.09. 2:00 0.3 l/m2 in 6 Std. Regen
Mi, 28.09. 20:00 6 l/m2 in 12 Std. Regen
Mi, 28.09. 14:00 3 l/m2 in 6 Std. Regen
Mi, 28.09. 8:00 1 l/m2 in 12 Std. Regen
Mi, 28.09. 2:00 0.3 l/m2 in 6 Std. Regen
Di, 27.09. 20:00 2 l/m2 in 12 Std. Regen
Di, 27.09. 14:00 0.8 l/m2 in 6 Std. Regen
Di, 27.09. 8:00 5 l/m2 in 12 Std. Regen
Ortszeit Niederschlagsmenge Niederschlagsart
Do, 29.09. 7:00 0.0 l/m2 in 1 Std. -
Do, 29.09. 6:50 keine Meldung -
Do, 29.09. 6:40 keine Meldung -
Do, 29.09. 6:30 0.0 l/m2 in 1 Std. -
Do, 29.09. 6:20 keine Meldung -
Do, 29.09. 6:10 keine Meldung -
Do, 29.09. 6:00 0.0 l/m2 in 1 Std. -
Do, 29.09. 5:30 0.0 l/m2 in 1 Std. -
Do, 29.09. 5:00 0.0 l/m2 in 1 Std. Sprühregen
Do, 29.09. 4:30 0.0 l/m2 in 1 Std. -
Do, 29.09. 4:00 0.0 l/m2 in 1 Std. -
Ortszeit Stärke Spitze Richtung
km/h Bft. km/h Grad Sektor
Do, 29.09. 2:00 9 2 19 140° SO
Mi, 28.09. 20:00 11 2 22 160° S
Mi, 28.09. 14:00 11 2 25 190° S
Mi, 28.09. 8:00 15 3 46 230° SW
Mi, 28.09. 2:00 29 5 47 210° SW
Di, 27.09. 20:00 20 4 46 200° S
Di, 27.09. 14:00 31 5 50 210° SW
Di, 27.09. 8:00 14 3 43 220° SW
Ortszeit Stärke Spitze Richtung
km/h Bft. km/h Grad Sektor
Do, 29.09. 7:00 2 1 7 330° NW
Do, 29.09. 6:50 2 1 - 330° NW
Do, 29.09. 6:40 2 1 - 150° SO
Do, 29.09. 6:30 4 1 7 60° NO
Do, 29.09. 6:20 4 1 - 60° NO
Do, 29.09. 6:10 4 1 - 60° NO
Do, 29.09. 6:00 4 1 7 360° N
Do, 29.09. 5:30 4 1 4 330° NW
Do, 29.09. 5:00 4 1 7 320° NW
Do, 29.09. 4:30 2 1 6 10° N
Do, 29.09. 4:00 4 1 7 70° O
Ortszeit Untergrenze Bedeckung Gattung
total tief tief mittel hoch
Do, 29.09. 2:00 1500 m 8/8 8/8 - - -
Mi, 28.09. 20:00 1320 m 8/8 6/8 - - -
Mi, 28.09. 14:00 1290 m 8/8 8/8 - - -
Mi, 28.09. 8:00 1080 m 7/8 7/8 - - -
Mi, 28.09. 2:00 690 m 8/8 8/8 - - -
Di, 27.09. 20:00 1380 m 8/8 8/8 - - -
Di, 27.09. 14:00 690 m 8/8 8/8 - - -
Di, 27.09. 8:00 990 m 8/8 8/8 - - -
Ortszeit Bedeckungsgrad in Achtel und Wolkenuntergrenze
Do, 29.09. 7:00 4(600m) 8(1800m) 8(2700m)
Do, 29.09. 6:50 4(600m) 8(1800m) 8(2700m)
Do, 29.09. 6:40 8
Do, 29.09. 6:30 1(720m) 7(1020m)
Do, 29.09. 6:20 1(720m) 7(1020m)
Do, 29.09. 6:10 8
Do, 29.09. 6:00 7(690m) 8(1050m) 8(3600m)
Do, 29.09. 5:30 7(1050m) 8(3000m) 8(5400m)
Do, 29.09. 5:00 1(1110m) 8(3000m) 8(5400m)
Do, 29.09. 4:30 4(1380m) 8(3000m) 8(6000m)
Do, 29.09. 4:00 2(930m) 7(1410m) 8(2100m)
Ortszeit Luftdruck NN (hPa) Tendenz (hPa in 3 Std.)
Do, 29.09. 2:00 1002 - 0,8
Mi, 28.09. 20:00 1002 + 0,5
Mi, 28.09. 14:00 1001 + 0,1
Mi, 28.09. 8:00 998 - 0,1
Mi, 28.09. 2:00 1001 - 2,5
Di, 27.09. 20:00 1004 + 0,1
Di, 27.09. 14:00 1004 - 1,2
Di, 27.09. 8:00 1004 + 1,7
Ortszeit Luftdruck NN (hPa) Tendenz (hPa in 3 Std.)
Do, 29.09. 7:00 1002 + 0,1
Do, 29.09. 6:50 1002 keine Meldung
Do, 29.09. 6:40 1002 keine Meldung
Do, 29.09. 6:30 1002 - 0,4
Do, 29.09. 6:20 1002 keine Meldung
Do, 29.09. 6:10 1001 keine Meldung
Do, 29.09. 6:00 1001 - 0,6
Do, 29.09. 5:30 1002 - 0,6
Do, 29.09. 5:00 1002 - 0,5
Do, 29.09. 4:30 1002 - 0,6
Do, 29.09. 4:00 1002 - 0,7
Ortszeit Schneehöhe (cm)
Do, 29.09. 2:00 0
Mi, 28.09. 20:00 0
Mi, 28.09. 14:00 0
Mi, 28.09. 8:00 0
Mi, 28.09. 2:00 0
Di, 27.09. 20:00 0
Di, 27.09. 14:00 0
Di, 27.09. 8:00 0
Ortszeit Schneehöhe (cm)
Do, 29.09. 7:00 0
Do, 29.09. 6:50 0
Do, 29.09. 6:40 0
Do, 29.09. 6:30 0
Do, 29.09. 6:20 0
Do, 29.09. 6:10 0
Do, 29.09. 6:00 0
Do, 29.09. 5:30 0
Do, 29.09. 5:00 0
Do, 29.09. 4:30 0
Do, 29.09. 4:00 0
Link zu dieser Seite / Seite empfehlen

Das Wetter in ...